FW1729 Manhattan Beach NY US current weather conditions

sailwx.info

Wind from 215 at 0 knots gusting 5

Air temperature 11.1° C
Dewpoint 10.7° C

Last reported at 2019-Dec-14 12:09 UTC.
Time now 2019-Dec-14 12:34 UTC

Location: N 40°35' W 073°56'.
View on Google Maps.

See reports from other nearby stations

  
Tides and Currents Weather Stations Pressure Air Temp Water Temp Dewpoint Dewpoint Depression Visibility Wind Speed Wind Dir Waves Ship Positions
date/time (UTC)wind fromknots sea level pressurealtimeterstation pressurevisibilityair tempwater tempwave heightnotes
2019-Dec-14 12:09 215 0 gusting 5 11.1
2019-Dec-14 12:04 257 1 gusting 5 11.1
2019-Dec-14 10:59 139 2 gusting 3 10.6
2019-Dec-14 10:54 151 1 gusting 2 10.6
2019-Dec-14 10:50 149 1 gusting 3 10.0
2019-Dec-14 10:45 136 2 gusting 3 10.0
2019-Dec-14 10:39 136 3 gusting 4 10.6
2019-Dec-14 10:34 131 3 gusting 4 10.6
2019-Dec-14 10:29 124 2 gusting 3 10.6
2019-Dec-14 10:24 134 2 gusting 3 10.6
2019-Dec-14 10:20 146 10.6
2019-Dec-14 10:14 120 0 gusting 2 10.6
2019-Dec-14 10:09 103 0 gusting 2 10.0
2019-Dec-14 10:04 099 2 gusting 2 10.0
2019-Dec-14 09:59 117 1 gusting 1 10.0
2019-Dec-14 09:54 136 10.0
2019-Dec-14 09:50 105 10.0
2019-Dec-14 09:45 094 1 gusting 2 10.0
2019-Dec-14 09:40 145 10.0
2019-Dec-14 09:34 100 0 gusting 1 10.0
2019-Dec-14 09:29 088 10.0
2019-Dec-14 09:24 091 0 gusting 1 10.0
2019-Dec-14 09:19 091 0 gusting 1 10.0
2019-Dec-14 09:05 104 10.0
2019-Dec-14 09:00 090 0 gusting 3 10.0
2019-Dec-14 08:54 113 1 gusting 3 10.0
2019-Dec-14 08:49 092 1 gusting 4 10.0
2019-Dec-14 08:45 097 1 gusting 4 10.0
2019-Dec-14 08:40 083 1 gusting 3 10.0
2019-Dec-14 08:34 084 0 gusting 3 10.0
2019-Dec-14 08:29 082 10.6
2019-Dec-14 08:24 094 0 gusting 3 10.6
2019-Dec-14 08:19 069 1 gusting 3 10.6
2019-Dec-14 08:15 090 1 gusting 2 10.6
2019-Dec-14 08:09 100 1 gusting 3 10.6
2019-Dec-14 08:05 082 1 gusting 3 10.6
2019-Dec-14 08:00 072 1 gusting 4 10.6
2019-Dec-14 07:54 041 2 gusting 5 10.6
2019-Dec-14 07:49 037 1 gusting 5 10.6
2019-Dec-14 07:44 068 2 gusting 6 10.6
2019-Dec-14 07:40 069 4 gusting 6 10.6
2019-Dec-14 07:35 027 3 gusting 6 10.6
2019-Dec-14 07:29 051 1 gusting 5 10.6
2019-Dec-14 07:24 064 1 gusting 5 10.6
2019-Dec-14 07:19 065 2 gusting 6 10.6
2019-Dec-14 07:14 077 3 gusting 6 10.6
2019-Dec-14 07:10 098 4 gusting 15 10.6
2019-Dec-14 07:05 113 7 gusting 15 10.6
2019-Dec-14 06:59 115 5 gusting 13 10.6
2019-Dec-14 06:54 108 7 gusting 16 11.1
2019-Dec-14 06:49 114 7 gusting 16 11.1
2019-Dec-14 06:44 104 6 gusting 14 10.6
2019-Dec-14 06:39 075 8 gusting 13 10.6
2019-Dec-14 06:35 100 6 gusting 9 10.6
2019-Dec-14 06:30 091 4 gusting 12 10.6
2019-Dec-14 06:24 105 5 gusting 15 11.1
2019-Dec-14 06:19 137 9 gusting 19 11.1
2019-Dec-14 06:14 110 13 gusting 20 11.1
2019-Dec-14 06:09 106 17 gusting 20 11.1
2019-Dec-14 06:05 100 12 gusting 17 11.1
2019-Dec-14 06:00 118 11 gusting 19 11.1
2019-Dec-14 05:54 066 10 gusting 17 11.1
2019-Dec-14 05:49 101 9 gusting 18 11.1
2019-Dec-14 05:44 125 13 gusting 18 11.1
2019-Dec-14 05:39 112 13 gusting 19 11.1
2019-Dec-14 05:34 094 14 gusting 21 11.1
2019-Dec-14 05:29 123 11 gusting 26 11.1
2019-Dec-14 05:24 096 13 gusting 20 11.1
2019-Dec-14 05:19 098 17 gusting 20 11.1
2019-Dec-14 05:15 112 16 gusting 22 11.1
2019-Dec-14 05:09 121 16 gusting 22 11.1
2019-Dec-14 05:04 105 15 gusting 21 11.1
2019-Dec-14 04:59 105 14 gusting 21 11.1
2019-Dec-14 04:54 099 14 gusting 18 11.1
2019-Dec-14 04:49 119 13 gusting 17 10.6
2019-Dec-14 04:45 120 9 gusting 15 10.6
2019-Dec-14 04:39 108 3 gusting 11 10.6
2019-Dec-14 04:34 074 6 gusting 12 10.6
2019-Dec-14 04:29 101 9 gusting 14 10.6
2019-Dec-14 04:24 096 11 gusting 20 11.1
2019-Dec-14 04:19 100 13 gusting 23 11.1
2019-Dec-14 04:15 087 16 gusting 23 11.1
2019-Dec-14 04:10 108 16 gusting 23 11.1
2019-Dec-14 04:04 097 16 gusting 24 11.1
2019-Dec-14 03:59 088 18 gusting 24 11.1
2019-Dec-14 03:54 106 16 gusting 21 11.1
2019-Dec-14 03:50 149 14 gusting 20 10.6
2019-Dec-14 03:45 136 14 gusting 20 10.6
2019-Dec-14 03:39 103 14 gusting 22 10.6
2019-Dec-14 03:34 110 17 gusting 22 10.6
2019-Dec-14 03:29 120 18 gusting 22 10.6
2019-Dec-14 03:24 113 14 gusting 19 10.6
2019-Dec-14 03:20 107 13 gusting 19 10.6
2019-Dec-14 03:14 113 15 gusting 19 11.1
2019-Dec-14 03:10 118 14 gusting 19 11.1
2019-Dec-14 03:05 113 13 gusting 19 11.1
2019-Dec-14 02:59 115 13 gusting 22 11.1
2019-Dec-14 02:54 127 17 gusting 22 11.1
2019-Dec-14 02:49 117 14 gusting 21 11.1
2019-Dec-14 02:44 132 16 gusting 25 11.1
2019-Dec-14 02:39 144 19 gusting 25 11.1
2019-Dec-14 02:35 133 16 gusting 25 11.1
2019-Dec-14 02:30 107 17 gusting 25 11.1
2019-Dec-14 02:24 144 17 gusting 25 10.6
2019-Dec-14 02:19 127 19 gusting 25 10.6
2019-Dec-14 02:14 140 17 gusting 24 10.6
2019-Dec-14 02:09 140 19 gusting 24 10.6
2019-Dec-14 02:05 126 19 gusting 23 10.6
2019-Dec-14 02:00 121 18 gusting 23 10.6
2019-Dec-14 01:54 132 15 gusting 20 10.6
2019-Dec-14 01:49 152 12 gusting 17 10.6
2019-Dec-14 01:44 165 11 gusting 14 10.0
2019-Dec-14 01:39 110 10 gusting 16 10.0
2019-Dec-14 01:34 107 12 gusting 18 10.0
2019-Dec-14 01:30 103 13 gusting 18 10.0
2019-Dec-14 01:25 108 13 gusting 16 10.0
2019-Dec-14 01:19 101 11 gusting 15 10.0
2019-Dec-14 01:14 108 12 gusting 17 10.0
2019-Dec-14 01:09 091 13 gusting 17 10.0
2019-Dec-14 01:04 119 11 gusting 13 10.0
2019-Dec-14 01:00 129 6 gusting 8 9.4
2019-Dec-14 00:54 109 2 gusting 6 9.4
2019-Dec-14 00:49 085 3 gusting 6 8.9
2019-Dec-14 00:44 117 2 gusting 6 8.9
2019-Dec-14 00:39 103 3 gusting 6 8.9
2019-Dec-14 00:34 131 3 gusting 6 8.9
2019-Dec-14 00:30 111 3 gusting 6 8.9
2019-Dec-14 00:24 091 3 gusting 6 8.9
2019-Dec-14 00:19 083 3 gusting 5 8.9
2019-Dec-14 00:14 088 2 gusting 3 8.9
2019-Dec-14 00:09 079 2 gusting 3 8.9
2019-Dec-14 00:05 071 1 gusting 2 8.9
2019-Dec-14 00:00 073 0 gusting 2 8.9
2019-Dec-13 23:54 089 0 gusting 2 8.9
2019-Dec-13 23:49 097 1 gusting 3 8.9
2019-Dec-13 23:44 113 1 gusting 3 8.9
2019-Dec-13 23:39 097 1 gusting 3 8.9
2019-Dec-13 23:34 091 1 gusting 5 8.9
2019-Dec-13 23:29 099 2 gusting 6 8.9
2019-Dec-13 23:25 097 3 gusting 6 8.9
2019-Dec-13 23:19 102 3 gusting 6 8.3
2019-Dec-13 23:14 089 2 gusting 5 8.3
2019-Dec-13 23:09 077 2 gusting 5 8.3
2019-Dec-13 23:04 099 2 gusting 6 8.3
2019-Dec-13 23:00 108 4 gusting 7 8.3
2019-Dec-13 22:54 103 6 gusting 7 8.3
2019-Dec-13 22:49 098 6 gusting 7 8.3
2019-Dec-13 22:44 129 5 gusting 7 8.3
2019-Dec-13 22:39 113 4 gusting 6 8.3
2019-Dec-13 22:34 108 3 gusting 6 8.3
2019-Dec-13 22:30 130 4 gusting 6 8.3
2019-Dec-13 22:24 116 3 gusting 5 8.3
2019-Dec-13 22:20 106 2 gusting 4 8.3
2019-Dec-13 22:14 099 1 gusting 7 8.3
2019-Dec-13 22:09 102 6 gusting 7 7.8
2019-Dec-13 22:04 106 6 gusting 7 7.8
2019-Dec-13 21:59 106 5 gusting 7 7.8
2019-Dec-13 21:54 103 6 gusting 6 7.8
2019-Dec-13 21:49 107 4 gusting 6 7.8
2019-Dec-13 21:44 103 2 gusting 4 7.8
2019-Dec-13 21:39 098 2 gusting 4 7.8
2019-Dec-13 21:34 107 2 gusting 4 7.8
2019-Dec-13 21:30 110 2 gusting 5 7.8
2019-Dec-13 21:24 114 3 gusting 5 7.8
2019-Dec-13 21:19 100 2 gusting 4 7.8
2019-Dec-13 21:14 092 2 gusting 4 7.8
2019-Dec-13 21:09 085 1 gusting 4 8.3
2019-Dec-13 21:04 058 1 gusting 3 8.3
2019-Dec-13 21:00 082 0 gusting 3 8.3
2019-Dec-13 20:55 084 2 gusting 4 7.8
2019-Dec-13 20:50 098 2 gusting 4 7.8
2019-Dec-13 20:44 089 2 gusting 4 8.3
2019-Dec-13 20:39 101 1 gusting 3 8.3
2019-Dec-13 20:34 088 0 gusting 4 8.3
2019-Dec-13 20:29 060 1 gusting 5 8.3
2019-Dec-13 20:25 085 1 gusting 5 8.3
2019-Dec-13 20:20 113 2 gusting 5 8.3
2019-Dec-13 20:14 090 2 gusting 4 8.3
2019-Dec-13 20:09 088 1 gusting 3 8.3
2019-Dec-13 20:04 074 1 gusting 3 8.3
2019-Dec-13 20:00 091 1 gusting 5 8.3
2019-Dec-13 19:55 101 2 gusting 5 8.3
2019-Dec-13 19:49 118 3 gusting 6 8.3
2019-Dec-13 19:44 128 3 gusting 6 8.3
2019-Dec-13 19:39 129 3 gusting 7 8.3
2019-Dec-13 19:34 120 4 gusting 7 8.3
2019-Dec-13 19:29 118 3 gusting 6 8.3
2019-Dec-13 19:24 115 3 gusting 6 8.3
2019-Dec-13 19:20 107 4 gusting 6 8.3
2019-Dec-13 19:15 111 4 gusting 5 8.3
2019-Dec-13 19:09 115 3 gusting 5 8.3
2019-Dec-13 19:04 119 2 gusting 6 8.3
2019-Dec-13 18:59 117 4 gusting 6 8.3
2019-Dec-13 18:54 114 2 gusting 3 8.3
2019-Dec-13 18:50 097 1 gusting 2 8.3
2019-Dec-13 18:45 075 1 gusting 4 8.9
2019-Dec-13 18:39 122 2 gusting 5 8.9
2019-Dec-13 18:34 117 3 gusting 5 8.9
2019-Dec-13 18:29 117 2 gusting 4 8.9
2019-Dec-13 18:24 120 1 gusting 2 8.9
2019-Dec-13 18:19 099 1 gusting 2 8.9
2019-Dec-13 18:14 106 0 gusting 4 8.9
2019-Dec-13 18:10 140 1 gusting 4 8.9
2019-Dec-13 18:05 113 3 gusting 4 8.9
2019-Dec-13 17:59 115 3 gusting 5 8.9
2019-Dec-13 17:54 141 3 gusting 6 8.9
2019-Dec-13 17:49 131 5 gusting 6 8.9
2019-Dec-13 17:45 120 4 gusting 6 8.9
2019-Dec-13 17:40 118 5 gusting 6 8.9
2019-Dec-13 17:34 127 4 gusting 6 8.9
2019-Dec-13 17:29 129 4 gusting 6 8.9
2019-Dec-13 17:24 137 4 gusting 6 8.9
2019-Dec-13 17:19 131 4 gusting 5 8.9
2019-Dec-13 17:14 117 3 gusting 5 8.9
2019-Dec-13 17:09 115 3 gusting 4 8.9
2019-Dec-13 17:04 136 2 gusting 4 8.9
2019-Dec-13 17:00 140 3 gusting 4 8.9
2019-Dec-13 16:54 117 1 gusting 3 8.9
2019-Dec-13 16:49 129 1 gusting 5 8.9
2019-Dec-13 16:44 127 2 gusting 6 8.9
2019-Dec-13 16:39 131 5 gusting 7 8.9
2019-Dec-13 16:34 140 6 gusting 9 8.9
2019-Dec-13 16:30 123 7 gusting 9 8.9
2019-Dec-13 16:24 131 7 gusting 8 8.9
2019-Dec-13 16:19 121 6 gusting 8 8.9
2019-Dec-13 16:14 159 4 gusting 6 8.9
2019-Dec-13 16:09 143 4 gusting 6 8.9
2019-Dec-13 16:05 147 5 gusting 6 8.9
2019-Dec-13 16:00 141 5 gusting 6 8.9
2019-Dec-13 15:54 141 6 gusting 8 8.9
2019-Dec-13 15:49 137 6 gusting 8 8.9
2019-Dec-13 15:44 144 6 gusting 9 8.9
2019-Dec-13 15:39 163 6 gusting 9 8.9
2019-Dec-13 15:34 141 6 gusting 9 8.9
2019-Dec-13 15:29 121 6 gusting 10 8.9
2019-Dec-13 15:25 143 6 gusting 10 8.9
2019-Dec-13 15:19 158 6 gusting 10 8.9
2019-Dec-13 15:14 144 6 gusting 12 8.9
2019-Dec-13 15:09 141 8 gusting 12 8.9
2019-Dec-13 15:04 151 8 gusting 11 8.9
2019-Dec-13 15:00 155 7 gusting 10 8.9
2019-Dec-13 14:54 167 6 gusting 10 8.9
2019-Dec-13 14:49 171 6 gusting 10 8.9
2019-Dec-13 14:44 152 5 gusting 9 8.9
2019-Dec-13 14:39 115 6 gusting 9 8.9
2019-Dec-13 14:34 153 5 gusting 9 8.9
2019-Dec-13 14:29 162 5 gusting 9 8.9
2019-Dec-13 14:25 129 4 gusting 8 8.9
2019-Dec-13 14:20 158 4 gusting 10 8.9
2019-Dec-13 14:14 152 5 gusting 11 8.9
2019-Dec-13 14:09 149 6 gusting 11 8.3
2019-Dec-13 14:04 191 5 gusting 9 8.3
2019-Dec-13 13:59 190 2 gusting 8 8.3
2019-Dec-13 13:54 194 3 gusting 6 7.2
2019-Dec-13 13:50 146 1 gusting 3 6.1
2019-Dec-13 13:44 101 2 gusting 4 6.1
2019-Dec-13 13:39 101 2 gusting 4 6.7
2019-Dec-13 13:34 117 1 gusting 4 6.1
2019-Dec-13 13:29 044 5.6
2019-Dec-13 13:25 046 0 gusting 1 5.6
2019-Dec-13 13:20 118 5.0
2019-Dec-13 13:15 086 5.0
2019-Dec-13 13:10 117 1 gusting 2 5.0
2019-Dec-13 13:04 091 0 gusting 2 5.0
2019-Dec-13 12:59 089 0 gusting 3 5.0
2019-Dec-13 12:54 127 1 gusting 3 4.4
2019-Dec-13 12:50 089 4.4
2019-Dec-13 12:44 060 0 gusting 2 4.4
2019-Dec-13 12:39 085 4.4
2019-Dec-13 12:34 069 0 gusting 1 4.4
2019-Dec-13 12:29 079 0 gusting 2 3.9
2019-Dec-13 12:25 081 4.4
2019-Dec-13 12:20 066 0 gusting 1 3.9
2019-Dec-13 12:14 069 3.9
2019-Dec-13 12:09 105 0 gusting 2 3.9
2019-Dec-13 12:04 077 0 gusting 3 3.9
2019-Dec-13 11:59 112 0 gusting 5 3.3
2019-Dec-13 11:54 107 1 gusting 3 3.3
2019-Dec-13 11:50 087 1 gusting 2 3.3
2019-Dec-13 11:45 098 0 gusting 2 3.3
2019-Dec-13 11:39 084 0 gusting 4 3.3
2019-Dec-13 11:34 098 0 gusting 5 2.8
2019-Dec-13 11:29 133 2 gusting 3 2.8
2019-Dec-13 11:24 103 1 gusting 2 2.8
2019-Dec-13 11:19 084 0 gusting 3 2.8
2019-Dec-13 11:15 092 1 gusting 6 2.8
2019-Dec-13 11:09 134 3 gusting 7 2.8
2019-Dec-13 11:04 098 6 gusting 8 2.2
2019-Dec-13 10:59 117 6 gusting 8 2.2
2019-Dec-13 10:54 102 6 gusting 8 2.2
2019-Dec-13 10:49 109 4 gusting 6 2.2
2019-Dec-13 10:44 103 3 gusting 5 2.2
2019-Dec-13 10:39 086 2 gusting 6 2.2
2019-Dec-13 10:34 085 4 gusting 8 2.2
2019-Dec-13 10:30 117 6 gusting 9 2.2
2019-Dec-13 10:24 104 6 gusting 9 2.2
2019-Dec-13 10:19 096 6 gusting 8 2.2
2019-Dec-13 10:14 119 5 gusting 10 2.2
2019-Dec-13 10:09 101 6 gusting 10 2.2
2019-Dec-13 10:04 094 6 gusting 9 2.2
2019-Dec-13 10:00 110 6 gusting 10 2.2
2019-Dec-13 09:55 105 6 gusting 11 2.2
2019-Dec-13 09:49 114 8 gusting 11 2.2
2019-Dec-13 09:44 100 6 gusting 7 2.2
2019-Dec-13 09:39 104 5 gusting 7 2.2
2019-Dec-13 09:34 111 5 gusting 6 2.2
2019-Dec-13 09:29 098 2 gusting 5 1.7
2019-Dec-13 09:25 117 2 gusting 5 1.7
2019-Dec-13 09:19 091 2 gusting 5 1.7
2019-Dec-13 09:14 082 2 gusting 6 1.7
2019-Dec-13 09:09 129 3 gusting 6 1.7
2019-Dec-13 09:04 103 2 gusting 4 1.7
2019-Dec-13 08:59 115 2 gusting 5 1.7
2019-Dec-13 08:55 094 2 gusting 5 1.7
2019-Dec-13 08:49 100 2 gusting 4 1.7
2019-Dec-13 08:44 096 2 gusting 4 1.7
2019-Dec-13 08:39 121 1 gusting 5 1.7
2019-Dec-13 08:34 087 1 gusting 8 1.1
2019-Dec-13 08:30 093 3 gusting 8 1.1
2019-Dec-13 08:24 106 2 gusting 9 1.1
2019-Dec-13 08:19 092 5 gusting 9 1.1
2019-Dec-13 08:14 120 2 gusting 6 1.1
2019-Dec-13 08:09 109 4 gusting 6 1.1
2019-Dec-13 08:03 092 2 gusting 7 1.1
2019-Dec-13 07:59 101 5 gusting 7 1.1
2019-Dec-13 07:55 105 3 gusting 6 1.1
2019-Dec-13 07:50 106 2 gusting 5 1.1
2019-Dec-13 07:44 121 3 gusting 5 1.1
2019-Dec-13 07:39 091 1 gusting 3 1.1
2019-Dec-13 07:34 079 1 gusting 2 1.1
2019-Dec-13 07:30 091 1 gusting 2 1.1
2019-Dec-13 07:25 089 1 gusting 3 1.1
2019-Dec-13 07:19 048 1 gusting 4 1.1
2019-Dec-13 07:09 100 2 gusting 3 1.1
2019-Dec-13 07:04 098 1 gusting 2 1.7
2019-Dec-13 06:59 089 0 gusting 1 1.7
2019-Dec-13 06:54 083 0 gusting 2 1.7
2019-Dec-13 06:50 077 1 gusting 2 2.2
2019-Dec-13 06:45 072 2.2
2019-Dec-13 06:39 094 2.8
2019-Dec-13 06:34 056 2.8
2019-Dec-13 06:29 045 2.8
2019-Dec-13 06:24 077 2.8
2019-Dec-13 06:20 071 2.8
2019-Dec-13 06:15 055 2.8
2019-Dec-13 06:09 038 2.8
2019-Dec-13 06:04 058 2.8
2019-Dec-13 05:59 342 2.8
2019-Dec-13 05:54 342 2.8
2019-Dec-13 05:50 337 2.8
2019-Dec-13 05:45 309 2.8
2019-Dec-13 05:40 331 2.8
2019-Dec-13 05:34 328 3.3
2019-Dec-13 05:29 300 3.3
2019-Dec-13 05:24 285 3.3
2019-Dec-13 05:19 299 0 gusting 5 3.3
2019-Dec-13 05:09 281 2 gusting 6 3.3
2019-Dec-13 05:04 273 3.3
2019-Dec-13 04:59 310 1 gusting 4 3.3
2019-Dec-13 04:54 309 0 gusting 3 3.3
2019-Dec-13 04:49 278 0 gusting 3 3.3
2019-Dec-13 04:45 281 0 gusting 3 3.3
2019-Dec-13 04:39 294 1 gusting 5 3.3
2019-Dec-13 04:34 260 1 gusting 4 3.3
2019-Dec-13 04:29 274 2 gusting 6 3.3
2019-Dec-13 04:24 280 0 gusting 4 3.3
2019-Dec-13 04:19 240 1 gusting 4 3.3
2019-Dec-13 04:14 288 0 gusting 3 3.3
2019-Dec-13 04:10 275 1 gusting 5 3.3
2019-Dec-13 04:04 295 0 gusting 5 3.3
2019-Dec-13 03:59 279 0 gusting 2 3.3
2019-Dec-13 03:54 298 0 gusting 2 2.8
2019-Dec-13 03:50 210 2.8
2019-Dec-13 03:44 242 0 gusting 4 2.8
2019-Dec-13 03:39 231 0 gusting 6 2.8
2019-Dec-13 03:34 176 1 gusting 6 2.8
2019-Dec-13 03:29 281 2.8
2019-Dec-13 03:24 273 0 gusting 3 2.8
2019-Dec-13 03:20 231 0 gusting 3 2.2
2019-Dec-13 03:15 185 0 gusting 3 2.2
2019-Dec-13 03:10 229 0 gusting 4 2.8
2019-Dec-13 03:05 274 0 gusting 6 2.8
2019-Dec-13 03:00 273 2 gusting 6 2.2
2019-Dec-13 02:54 117 1 gusting 6 2.2
2019-Dec-13 02:49 133 1 gusting 6 2.8
2019-Dec-13 02:44 296 2 gusting 6 2.2
2019-Dec-13 02:39 283 0 gusting 3 2.2
2019-Dec-13 02:34 270 0 gusting 4 2.2
2019-Dec-13 02:30 230 0 gusting 5 2.2
2019-Dec-13 02:24 243 1 gusting 5 2.2
2019-Dec-13 02:19 294 0 gusting 5 2.2
2019-Dec-13 02:14 136 0 gusting 6 2.2
2019-Dec-13 02:09 242 2 gusting 6 2.2
2019-Dec-13 02:04 218 1 gusting 5 2.2
2019-Dec-13 02:00 285 0 gusting 6 2.2
2019-Dec-13 01:55 231 1 gusting 6 2.2
2019-Dec-13 01:49 319 1 gusting 8 2.2
2019-Dec-13 01:44 260 2 gusting 8 2.2
2019-Dec-13 01:39 243 2 gusting 6 1.7
2019-Dec-13 01:34 100 1 gusting 6 1.7
2019-Dec-13 01:30 262 2 gusting 6 1.7
2019-Dec-13 01:24 290 2 gusting 6 1.7
2019-Dec-13 01:19 159 1 gusting 6 1.7
2019-Dec-13 01:14 155 2 gusting 5 1.7
2019-Dec-13 01:10 107 1 gusting 5 1.7
2019-Dec-13 01:05 259 1 gusting 7 1.7
2019-Dec-13 01:00 156 0 gusting 5 1.7
2019-Dec-13 00:54 231 1 gusting 5 1.7
2019-Dec-13 00:49 203 0 gusting 4 1.7
2019-Dec-13 00:44 201 0 gusting 3 1.1
2019-Dec-13 00:40 141 0 gusting 3 1.1
2019-Dec-13 00:34 142 0 gusting 3 1.1
2019-Dec-13 00:30 158 0 gusting 3 1.1
2019-Dec-13 00:24 271 0 gusting 3 1.1
2019-Dec-13 00:19 288 0 gusting 5 1.1
2019-Dec-13 00:14 216 1 gusting 5 1.1
2019-Dec-13 00:09 102 0 gusting 3 1.1
2019-Dec-13 00:05 257 1 gusting 4 1.1
2019-Dec-13 00:00 169 1 gusting 4 1.1
2019-Dec-12 23:55 150 0 gusting 3 1.1
2019-Dec-12 23:49 150 0 gusting 3 1.1
2019-Dec-12 23:44 117 1 gusting 3 0.6
2019-Dec-12 23:39 170 0 gusting 3 1.1
2019-Dec-12 23:34 146 0 gusting 2 1.1
2019-Dec-12 23:30 207 1.1
2019-Dec-12 23:24 142 1.1
2019-Dec-12 23:19 221 0 gusting 2 1.1
2019-Dec-12 23:14 176 1.1
2019-Dec-12 23:09 154 1.1
2019-Dec-12 23:05 296 1.7
2019-Dec-12 23:00 295 0 gusting 3 1.1
2019-Dec-12 22:54 221 0 gusting 3 1.1
2019-Dec-12 22:49 244 0 gusting 3 1.1
2019-Dec-12 22:44 234 0 gusting 3 1.1
2019-Dec-12 22:40 220 1.1
2019-Dec-12 22:35 358 0 gusting 3 1.1
2019-Dec-12 22:29 221 0 gusting 3 1.1
2019-Dec-12 22:24 195 1.1
2019-Dec-12 22:19 273 1.7
2019-Dec-12 22:14 277 1.1
2019-Dec-12 22:09 252 0 gusting 3 1.1
2019-Dec-12 22:05 288 0 gusting 2 1.1
2019-Dec-12 22:00 249 1.1
2019-Dec-12 21:54 227 0 gusting 4 1.1
2019-Dec-12 21:49 229 1 gusting 4 1.1
2019-Dec-12 21:44 292 0 gusting 3 1.1
2019-Dec-12 21:39 234 1.7
2019-Dec-12 21:35 287 0 gusting 1 1.1
2019-Dec-12 21:29 290 0 gusting 2 1.1
2019-Dec-12 21:24 189 0 gusting 2 1.1
2019-Dec-12 21:19 257 0 gusting 2 1.7
2019-Dec-12 21:14 096 1.7
2019-Dec-12 21:10 191 1.7
2019-Dec-12 21:05 300 1 gusting 3 2.2
2019-Dec-12 20:59 306 0 gusting 3 2.2
2019-Dec-12 20:54 160 2.2
2019-Dec-12 20:49 236 0 gusting 4 2.2
2019-Dec-12 20:44 203 0 gusting 5 2.2
2019-Dec-12 20:39 149 1 gusting 5 2.8
2019-Dec-12 20:34 308 0 gusting 4 2.8
2019-Dec-12 20:30 295 0 gusting 4 2.8
2019-Dec-12 20:24 139 0 gusting 3 2.8
2019-Dec-12 20:20 281 1 gusting 4 2.8
2019-Dec-12 20:14 295 0 gusting 4 2.8
2019-Dec-12 20:09 294 1 gusting 3 2.8
2019-Dec-12 20:04 339 0 gusting 3 2.8
2019-Dec-12 19:59 276 1 gusting 3 2.8
2019-Dec-12 19:54 250 0 gusting 3 2.8
2019-Dec-12 19:50 179 2.8
2019-Dec-12 19:45 337 2.8
2019-Dec-12 19:39 159 0 gusting 2 2.8
2019-Dec-12 19:34 276 3.3
2019-Dec-12 19:29 283 2.8
2019-Dec-12 19:24 296 2.8
2019-Dec-12 19:19 319 1 gusting 3 2.8
2019-Dec-12 19:14 163 0 gusting 3 2.8
2019-Dec-12 19:10 191 0 gusting 2 2.8
2019-Dec-12 19:04 290 0 gusting 2 2.8
2019-Dec-12 18:59 276 0 gusting 4 2.8
2019-Dec-12 18:54 291 0 gusting 4 3.3
2019-Dec-12 18:49 221 0 gusting 3 2.8
2019-Dec-12 18:44 151 3.3
2019-Dec-12 18:40 339 0 gusting 3 3.3
2019-Dec-12 18:34 286 0 gusting 3 3.3
2019-Dec-12 18:29 274 2.8
2019-Dec-12 18:24 266 2.8
2019-Dec-12 18:20 268 0 gusting 2 2.8
2019-Dec-12 18:15 099 0 gusting 2 2.2
2019-Dec-12 18:09 078 0 gusting 2 2.2
2019-Dec-12 18:04 097 0 gusting 5 2.2
2019-Dec-12 17:59 101 1 gusting 4 1.7
2019-Dec-12 17:54 118 2 gusting 5 1.7
2019-Dec-12 17:50 084 1 gusting 6 1.7
2019-Dec-12 17:45 120 2 gusting 6 1.7
2019-Dec-12 17:39 096 1 gusting 7 1.7
2019-Dec-12 17:34 068 1 gusting 6 2.2
2019-Dec-12 17:29 110 2 gusting 6 2.2
2019-Dec-12 17:25 096 2 gusting 6 2.2
2019-Dec-12 17:19 085 0 gusting 6 2.2
2019-Dec-12 17:14 359 2 gusting 6 1.7
2019-Dec-12 17:09 107 0 gusting 7 1.1
2019-Dec-12 17:04 075 2 gusting 9 1.7
2019-Dec-12 17:00 143 4 gusting 9 1.7
2019-Dec-12 16:55 134 2 gusting 7 1.1
2019-Dec-12 16:49 032 1 gusting 7 1.1
2019-Dec-12 16:44 068 2 gusting 7 1.1
2019-Dec-12 16:39 066 1 gusting 6 1.1
2019-Dec-12 16:34 066 2 gusting 8 1.1
2019-Dec-12 16:29 074 3 gusting 12 0.6
2019-Dec-12 16:24 043 5 gusting 10 0.6
2019-Dec-12 16:20 064 3 gusting 10 0.6
2019-Dec-12 16:15 044 3 gusting 8 1.1
2019-Dec-12 16:09 058 5 gusting 8 0.6
2019-Dec-12 16:04 031 2 gusting 6 1.1
2019-Dec-12 15:59 053 1 gusting 12 0.6
2019-Dec-12 15:55 044 4 gusting 12 0.6
2019-Dec-12 15:50 053 2 gusting 11 0.6
2019-Dec-12 15:44 089 2 gusting 11 -0.0
2019-Dec-12 15:39 060 3 gusting 11 0.6
2019-Dec-12 15:34 013 3 gusting 6 -0.0
2019-Dec-12 15:29 045 2 gusting 12 -0.0
2019-Dec-12 15:24 030 5 gusting 13 -0.0
2019-Dec-12 15:20 030 6 gusting 13 -0.6
2019-Dec-12 15:14 028 7 gusting 12 -0.0
2019-Dec-12 15:09 089 4 gusting 11 -0.0
2019-Dec-12 15:04 049 6 gusting 11 -0.0
2019-Dec-12 14:59 046 4 gusting 10 -0.0
2019-Dec-12 14:54 008 5 gusting 11 -0.6
2019-Dec-12 14:50 054 6 gusting 12 -0.6
2019-Dec-12 14:45 040 6 gusting 13 -0.6
2019-Dec-12 14:39 063 4 gusting 12 -0.6
2019-Dec-12 14:34 039 4 gusting 12 -0.6
2019-Dec-12 14:29 038 5 gusting 11 -0.6
2019-Dec-12 14:24 029 3 gusting 11 -1.1
2019-Dec-12 14:19 018 6 gusting 11 -1.1
2019-Dec-12 14:15 044 1 gusting 15 -1.1
2019-Dec-12 14:09 029 9 gusting 15 -1.7
2019-Dec-12 14:05 037 10 gusting 13 -1.7
2019-Dec-12 14:00 343 5 gusting 10 -1.1
2019-Dec-12 13:54 072 2 gusting 12 -1.1
2019-Dec-12 13:49 036 6 gusting 12 -1.7
2019-Dec-12 13:44 023 5 gusting 13 -1.7
2019-Dec-12 13:39 067 7 gusting 13 -1.7
2019-Dec-12 13:35 032 6 gusting 13 -1.7
2019-Dec-12 13:29 021 6 gusting 13 -1.7
2019-Dec-12 13:24 066 4 gusting 13 -1.7
2019-Dec-12 13:19 029 6 gusting 13 -1.7
2019-Dec-12 13:14 030 9 gusting 13 -1.7
2019-Dec-12 13:10 060 8 gusting 13 -1.7
2019-Dec-12 13:05 050 2 gusting 12 -1.7
2019-Dec-12 12:59 331 5 gusting 13 -1.7
2019-Dec-12 12:55 347 5 gusting 13 -1.7
2019-Dec-12 12:49 021 7 gusting 14 -1.7
2019-Dec-12 12:44 030 6 gusting 15 -1.7
2019-Dec-12 12:39 013 8 gusting 19 -1.7
2019-Dec-12 12:34 080 9 gusting 19 -1.7
2019-Dec-12 12:30 006 6 gusting 13 -1.7
2019-Dec-12 12:25 049 8 gusting 13 -1.7
2019-Dec-12 12:19 041 5 gusting 12 -1.7
2019-Dec-12 12:14 060 3 gusting 10 -1.7
2019-Dec-12 12:09 330 5 gusting 12 -1.7
2019-Dec-12 12:04 022 5 gusting 12 -1.7